Weather reports worldwide

Advertisment
Northampton (Moulton Park), United Kingdom (99115): temperature & dewpoint: 15.02.2018 19:00:00 - 21.02.2018 19:00:00 (GMT)Northampton (Moulton Park), United Kingdom (99115): temperature -100cm: 15.02.2018 19:00:00 - 21.02.2018 19:00:00 (GMT)Northampton (Moulton Park), United Kingdom (99115): precipitation: 15.02.2018 19:00:00 - 21.02.2018 19:00:00 (GMT)
Date & Time tt [°C] td [°C] tt -100cm [°C] rr [mm]
21.02.2018 19:00:00 - - - 0,0
21.02.2018 18:00:00 4,7 2,6 - 0,0
21.02.2018 17:00:00 5,2 3,2 - 0,0
21.02.2018 16:00:00 5,7 3,3 - 0,0
21.02.2018 15:00:00 5,1 3,2 - 0,2
21.02.2018 14:00:00 6,3 2,8 - 0,0
21.02.2018 13:00:00 5,5 4,1 - 0,0
21.02.2018 12:00:00 5,2 3,6 - 0,0
21.02.2018 11:00:00 4,3 2,6 - 0,0
21.02.2018 10:00:00 3,5 2,2 - 0,0
21.02.2018 09:00:00 3,0 2,3 6,7 0,0
21.02.2018 08:00:00 2,3 1,8 - 0,0
21.02.2018 07:00:00 2,3 1,8 - 0,0
21.02.2018 06:00:00 2,6 2,0 - 0,0
21.02.2018 05:00:00 2,6 1,8 - 0,0
21.02.2018 04:00:00 2,6 2,0 - 0,0
21.02.2018 03:00:00 2,9 2,3 - 0,0
21.02.2018 02:00:00 3,6 3,0 - 0,0
21.02.2018 01:00:00 4,0 3,4 - 0,0
21.02.2018 00:00:00 4,6 4,3 - 0,2
20.02.2018 23:00:00 5,4 4,0 - 0,0
20.02.2018 22:00:00 6,0 3,3 - 0,0
20.02.2018 21:00:00 6,2 3,2 - 0,0
20.02.2018 20:00:00 6,2 2,8 - 0,0
20.02.2018 19:00:00 6,8 3,0 - 0,0
20.02.2018 18:00:00 7,3 2,6 - 0,0
20.02.2018 17:00:00 7,7 2,6 - 0,0
20.02.2018 16:00:00 8,4 2,0 - 0,0
20.02.2018 15:00:00 8,8 2,1 - 0,0
20.02.2018 14:00:00 8,8 2,5 - 0,0
20.02.2018 13:00:00 8,6 3,2 - 0,0
20.02.2018 12:00:00 7,9 3,0 - 0,0
20.02.2018 11:00:00 7,3 3,2 - 0,2
20.02.2018 10:00:00 7,0 4,3 - 0,0
20.02.2018 09:00:00 5,6 4,5 6,5 0,0
20.02.2018 08:00:00 6,4 5,9 - 0,4
20.02.2018 07:00:00 6,5 5,8 - 0,0
20.02.2018 06:00:00 7,6 7,2 - 0,0
20.02.2018 05:00:00 7,5 7,0 - 0,0
20.02.2018 04:00:00 6,7 6,1 - 0,0
20.02.2018 03:00:00 7,6 6,9 - 0,0
20.02.2018 02:00:00 7,9 7,4 - 0,2
20.02.2018 01:00:00 7,9 7,7 - 0,0
20.02.2018 00:00:00 8,1 7,8 - 0,0
19.02.2018 23:00:00 8,3 7,9 - 0,0
19.02.2018 22:00:00 8,8 8,0 - 0,0
19.02.2018 21:00:00 8,9 8,0 - 0,0
19.02.2018 20:00:00 9,0 8,2 - 0,0
19.02.2018 19:00:00 9,2 8,1 - 0,0
19.02.2018 18:00:00 9,5 8,1 - 0,0
19.02.2018 17:00:00 9,7 8,5 - 0,0
19.02.2018 16:00:00 9,9 9,0 - 0,0
19.02.2018 15:00:00 9,9 9,2 - 0,0
19.02.2018 14:00:00 9,8 9,5 - 0,0
19.02.2018 13:00:00 9,5 9,2 - 0,0
19.02.2018 12:00:00 9,1 9,1 - 0,0
19.02.2018 11:00:00 8,3 8,3 - 0,2
19.02.2018 10:00:00 7,8 7,8 - 0,0
19.02.2018 09:00:00 7,2 7,2 6,7 0,2
19.02.2018 08:00:00 6,5 6,5 - 0,4
19.02.2018 07:00:00 6,0 6,0 - 0,0
19.02.2018 06:00:00 5,9 5,9 - 0,0
19.02.2018 05:00:00 5,7 5,7 - 0,2
19.02.2018 04:00:00 5,6 5,6 - 0,2
19.02.2018 03:00:00 5,6 5,5 - 0,0
19.02.2018 02:00:00 5,6 5,4 - 0,4
19.02.2018 01:00:00 5,6 5,3 - 0,4
19.02.2018 00:00:00 5,8 5,2 - 0,2
18.02.2018 23:00:00 6,2 4,8 - 0,0
18.02.2018 22:00:00 6,3 4,6 - 0,0
18.02.2018 21:00:00 6,5 4,4 - 0,0
18.02.2018 20:00:00 6,8 4,3 - 0,0
18.02.2018 19:00:00 7,3 4,5 - 0,0
18.02.2018 18:00:00 7,7 4,7 - 0,0
18.02.2018 17:00:00 8,1 4,8 - 0,0
18.02.2018 16:00:00 8,3 4,8 - 0,0
18.02.2018 15:00:00 8,3 4,6 - 0,0
18.02.2018 14:00:00 8,1 4,3 - 0,0
18.02.2018 13:00:00 8,1 5,3 - 0,0
18.02.2018 12:00:00 5,7 5,6 - 0,0
18.02.2018 11:00:00 4,4 4,3 - 0,0
18.02.2018 10:00:00 3,0 3,0 - 0,0
18.02.2018 09:00:00 2,8 2,8 6,7 0,0
18.02.2018 08:00:00 2,3 2,3 - 0,0
18.02.2018 07:00:00 2,7 2,7 - 0,0
18.02.2018 06:00:00 2,4 2,4 - 0,0
18.02.2018 05:00:00 2,2 2,2 - 0,0
18.02.2018 04:00:00 2,5 2,5 - 0,0
18.02.2018 03:00:00 2,5 2,5 - 0,0
18.02.2018 02:00:00 2,4 2,3 - 0,0
18.02.2018 01:00:00 2,2 1,8 - 0,0
18.02.2018 00:00:00 2,8 2,3 - 0,0
17.02.2018 23:00:00 3,0 2,5 - 0,0
17.02.2018 22:00:00 3,1 2,4 - 0,0
17.02.2018 21:00:00 3,5 2,6 - 0,0
17.02.2018 20:00:00 4,4 2,9 - 0,0
17.02.2018 19:00:00 5,0 2,6 - 0,0
17.02.2018 18:00:00 6,5 2,8 - 0,0
17.02.2018 17:00:00 7,6 2,7 - 0,0
17.02.2018 16:00:00 7,9 2,4 - 0,0
17.02.2018 15:00:00 8,4 2,5 - 0,0
17.02.2018 14:00:00 8,1 2,6 - 0,0
17.02.2018 13:00:00 7,6 2,6 - 0,0
17.02.2018 12:00:00 7,1 2,4 - 0,0
17.02.2018 11:00:00 6,3 2,9 - 0,0
17.02.2018 10:00:00 5,7 2,9 - 0,0
17.02.2018 09:00:00 3,0 1,7 6,7 0,0
17.02.2018 08:00:00 0,9 0,8 - 0,0
17.02.2018 07:00:00 0,2 0,0 - 0,0
17.02.2018 06:00:00 0,8 0,6 - 0,0
17.02.2018 05:00:00 0,9 0,8 - 0,0
17.02.2018 04:00:00 0,9 0,9 - 0,0
17.02.2018 03:00:00 0,3 -0,3 - 0,0
17.02.2018 02:00:00 1,3 0,5 - 0,0
17.02.2018 01:00:00 1,1 0,2 - 0,0
17.02.2018 00:00:00 2,6 1,1 - 0,0
16.02.2018 23:00:00 3,1 0,6 - 0,0
16.02.2018 22:00:00 3,3 -0,3 - 0,0
16.02.2018 21:00:00 3,5 -1,1 - 0,0
16.02.2018 20:00:00 4,4 -0,7 - 0,0
16.02.2018 19:00:00 5,0 -0,1 - 0,0
16.02.2018 18:00:00 5,5 0,1 - 0,0
16.02.2018 17:00:00 7,0 0,4 - 0,0
16.02.2018 16:00:00 8,0 0,3 - 0,0
16.02.2018 15:00:00 9,1 1,7 - 0,0
16.02.2018 14:00:00 8,5 1,6 - 0,0
16.02.2018 13:00:00 8,0 2,3 - 0,0
16.02.2018 12:00:00 7,2 2,2 - 0,0
16.02.2018 11:00:00 5,5 1,3 - 0,0
16.02.2018 10:00:00 3,6 0,7 - 0,2
16.02.2018 09:00:00 1,5 -0,3 6,7 0,0
16.02.2018 08:00:00 -0,1 -1,1 - 0,0
16.02.2018 07:00:00 0,2 -1,3 - 0,0
16.02.2018 06:00:00 0,2 -1,4 - 0,0
16.02.2018 05:00:00 0,5 -1,0 - 0,0
16.02.2018 04:00:00 0,3 -1,0 - 0,0
16.02.2018 03:00:00 0,8 -0,4 - 0,0
16.02.2018 02:00:00 0,4 -0,8 - 0,0
16.02.2018 01:00:00 1,4 -0,3 - 0,0
16.02.2018 00:00:00 2,2 -0,3 - 0,0
15.02.2018 23:00:00 2,6 -0,3 - 0,0
15.02.2018 22:00:00 2,9 -0,4 - 0,0
15.02.2018 21:00:00 3,3 -0,6 - 0,0
15.02.2018 20:00:00 4,0 -0,8 - 0,0
15.02.2018 19:00:00 4,0 -0,3 - 0,0

tt = temperature
td = dewpoint
tt -100cm = temperature -100cm
rr = precipitation

Next stations